Zurück zum Katalog

SL-8 R/B

AktivPO
NORAD 25893·ROCKET BODY·🇷🇺 Russia

Gestartet Aug 26, 1999 von Plesetsk Cosmodrome

Loading…

Nächste Überflüge (nächste 24 Stunden)

TLE

AktuellSource: Space-Track

Epoche: Sep 14, 2026, 14:55 UTC

1 25893U 99045B   26257.62158811 -.00000003  00000-0 -18588-4 0  9997
2 25893  82.9272  30.7115 0028890  15.2938 355.3013 13.76854032359209

Verfolge SL-8 R/B in Echtzeit mit AllMySat

Download on the App Store